Simultaneous Nadir Overpasses (SNOs) Predictions

Prediction of SNOs between AQUA and NPP Satellite Orbit:

Table of predicted SNOs for the next 14.0 days since TLE Epoch: 7/27/2019
Index Date (AQUA) Time (AQUA) Lat,Lon (AQUA) SZA (AQUA ) Date (NPP) Time (NPP) Lat,Lon (NPP) SZA (NPP ) Distance(km) Time Diff (sec)
1 07/28/2019 05:32:33 -74.61, 152.15 99.49 07/28/2019 05:31:40 -74.61, 152.10 99.44 1.47 53
2 07/28/2019 06:21:32 75.93, -36.59 79.00 07/28/2019 06:21:56 75.93, -36.60 78.98 0.43 24
3 07/30/2019 21:48:48 -75.31, -90.16 99.67 07/30/2019 21:48:21 -75.31, -90.12 99.66 1.21 27
4 07/30/2019 22:37:51 76.41, 80.81 79.05 07/30/2019 22:38:41 76.42, 80.88 78.99 2.10 50
5 08/02/2019 13:18:40 65.99,-157.01 90.89 08/02/2019 13:17:27 66.11,-157.88 91.09 41.48 73
6 08/02/2019 14:05:12 -75.50, 26.24 99.24 08/02/2019 14:05:12 -75.49, 26.19 99.23 1.44 0
7 08/02/2019 14:52:04 81.39,-127.88 71.95 08/02/2019 14:53:17 81.01,-126.94 71.75 45.01 73
8 08/05/2019 05:32:25 74.90, -27.13 82.12 08/05/2019 05:31:34 74.90, -27.08 82.15 1.69 51
9 08/05/2019 06:21:28 -76.12, 143.97 99.29 08/05/2019 06:21:54 -76.12, 144.05 99.33 2.23 26
10 08/07/2019 21:48:49 75.13, 89.35 82.56 08/07/2019 21:48:25 75.13, 89.33 82.59 0.86 24




NCC Satellite Simultaneous Nadir Overpasses (SNOs) Prediction Service
